SCP
0 0 0 0 0 0 0 0 0 0 0 0 0 0 0 0 0 0 0 0 0 0 0 0 0 0 0 0 0 0 0 0 0 0 0 0 0 0 0 0 0 0 0
0 0 0 0 0 0 0 0 0 0 0 0 0 0 0 0 0 0 0 0 0 0 0 0 0 0 0 0 0 0 0 0 0 0 0 0 0 0 0 0 0 0 0
0 0 0 0 0 0 0 0 0 0 0 0 0 0 0 0 0 0 0 0 0 0 0 0 0 0 0 0 0 0 0 0 0 0 0 0 0 0 0 0 0 0 0
0 0 0 0 0 0 0 0 0 0 0 0 0 0 0 0 0 0 0 0 0 0 0 0 0 0 0 0 0 0 0 0 0 0 0 0 0 0 0 0 0 0 0
0 0 0 0 0 0 0 0 0 0 0 0 0 0 0 0 0 0 0 0 0 0 0 0 0 0 0 0 0 0 0 0 0 0 0 0 0 0 0 0 0 0 0
0 0 0 0 0 0 0 0 0 0 0 0 0 0 0 0 0 0 0 0 0 0 0 0 0 0 0 0 0 0 0 0 0 0 0 0 0 0 0 0 0 0 0
0 0 0 0 0 0 0 0 0 0 0 0 0 0 0 0 0 0 0 0 0 0 0 0 0 0 0 0 0 0 0 0 0 0 0 0 0 0 0 0 0 0 0
0 0 0 0 0 0 0 0 0 0 0 0 0 0 0 0 0 0 0 0 0 0 0 0 0 0 0 0 0 0 0 0 0 0 0 0 0 0 0 0 0 0 0
0 0 0 0 0 0 0 0 0 0 0 0 0 0 0 0 0 0 0 0 0 0 0 0 0 0 0 0 0 0 0 0 0 0 0 0 0 0 0 0 0 0 0
0 0 0 0 0 0 0 0 0 0 0 0 0 0 0 0 0 0 0 0 0 0 0 0 0 0 0 0 0 0 0 0 0 0 0 0 0 0 0 0 0 0 0
0 0 0 0 0 0 0 0 0 0 0 0 0 0 0 0 0 0 0 0 0 0 0 0 0 0 0 0 0 0 0 0 0 0 0 0 0 0 0 0 0 0 0
0 0 0 0 0 0 0 0 0 0 0 0 0 0 0 0 0 0 0 0 0 0 0 0 0 0 0 0 0 0 0 0 0 0 0 0 0 0 0 0 0 0 0
0 0 0 0 0 0 0 0 0 0 0 0 0 0 0 0 0 0 0 0 0 0 0 0 0 0 0 0 0 0 0 0 0 0 0 0 0 0 0 0 0 0 0
0 0 0 0 0 0 0 0 0 0 0 0 0 0 0 0 0 0 0 0 0 0 0 0 0 0 0 0 0 0 0 0 0 0 0 0 0 0 0 0 0 0 0
0 0 0 0 0 0 0 0 0 0 0 0 0 0 0 0 0 0 0 0 0 0 0 0 0 0 0 0 0 0 0 0 0 0 0 0 0 0 0 0 0 0 0
0 0 0 0 0 0 0 0 0 0 0 0 0 0 0 0 0 0 0 0 0 0 0 0 0 0 0 0 0 0 0 0 0 0 0 0 0 0 0 0 0 0 0
0 0 0 0 0 0 0 0 0 0 0 0 0 0 0 0 0 0 0 0 0 0 0 0 0 0 0 0 0 0 0 0 0 0 0 0 0 0 0 0 0 0 0
0 0 0 0 0 0 0 0 0 0 0 0 0 0 0 0 0 0 0 0 0 0 0 0 0 0 0 0 0 0 0 0 0 0 0 0 0 0 0 0 0 0 0
0 0 0 0 0 0 0 0 0 0 0 0 0 0 0 0 0 0 0 0 0 0 0 0 0 0 0 0 0 0 0 0 0 0 0 0 0 0 0 0 0 0 0
0 0 0 0 0 0 0 0 0 0 0 0 0 0 0 0 0 0 0 0 0 0 0 0 0 0 0 0 0 0 0 0 0 0 0 0 0 0 0 0 0 0 0
0 0 0 0 0 0 0 0 0 0 0 0 0 0 0 0 -0 -0 -0 0 0 0 0 0 0 0 0 0 0 0 0 0 0 0 0 0 0 0 0 0 0 0 0
0 0 0 0 0 0 0 0 0 0 0 -0 -0 -0 -0 -0 -0 -0 0 0 0 0 0 0 0 0 0 0 0 0 0 0 0 0 0 0 0 0 0 0 0 0 0
0 0 0 0 0 -0 -0 -0 -0 -0 -0 -0 -0 -0 -0 -0 0 0 0 0 0 0 0 0 0 0 0 0 0 0 0 0 0 0 0 0 0 0 0 0 0 0 0
-0 -0 -0 -0 0 0 0 0 -0 -0 -0 -0 -0 -0 0 0 0 0 0 0 0 0 0 0 0 0 0 0 0 0 0 0 0 0 0 0 0 0 0 0 0 0 0
0 0 0 0 0 0 -0 -0 -0 0 0 0 0 0 0 0 0 0 0 0 0 0 0 0 0 0 0 0 0 0 0 0 0 0 0 0 0 0 0 0 0 0 0
0 0 0 0 0 0 0 0 0 0 0 0 0 0 0 0 0 0 0 0 0 0 0 0 0 0 0 0 0 0 0 0 0 0 0 0 0 0 0 0 0 0 0
Wind_Speed_500mb
12 13 16 19 24 23 24 27 26 25 24 24 22 24 22 21 24 23 21 19 16 12 11 10 11 7 5 5 4 8 9 9 7 7 9 12 14 17 20 24 28 31 31
6 10 14 19 23 22 25 28 23 22 21 17 15 14 18 17 19 14 11 10 7 8 7 5 3 1 1 1 1 3 5 8 8 7 8 11 14 17 21 25 28 31 32
17 16 15 16 14 14 13 11 10 14 16 18 17 16 13 11 12 11 11 11 9 7 5 4 4 5 3 1 3 6 8 9 10 10 11 12 15 20 23 26 28 30 31
18 15 12 9 7 8 9 10 9 10 11 14 14 15 13 16 14 15 14 11 8 7 8 7 7 5 3 3 5 8 11 13 14 14 14 15 16 19 22 25 25 30 31
10 10 8 8 8 9 8 6 8 12 14 16 16 17 18 17 17 15 14 14 12 11 9 7 5 2 3 7 10 12 15 17 16 16 16 16 18 20 24 29 31 32 35
13 12 12 13 14 14 9 10 10 11 12 12 11 13 15 16 18 16 14 12 11 10 8 4 4 6 9 11 14 16 15 15 15 16 17 18 22 24 26 30 34 38 36
12 11 12 12 12 14 13 12 12 11 12 13 15 17 18 17 15 12 11 9 8 6 4 3 7 10 12 13 15 15 16 19 19 18 19 21 23 25 27 28 31 34 36
13 12 12 13 13 13 13 14 16 17 17 18 19 18 15 14 13 10 8 5 2 3 6 8 10 12 13 15 15 16 18 18 19 21 22 22 23 25 27 29 30 32 37
13 13 13 14 13 14 14 15 15 16 17 17 17 17 16 13 10 6 3 2 5 7 8 10 12 14 16 17 19 19 19 20 21 23 22 23 22 23 25 27 30 36 41
11 12 13 14 16 15 15 15 14 15 16 17 18 16 13 10 5 1 3 5 8 11 13 15 15 17 18 18 20 22 22 22 23 23 22 22 22 24 25 27 31 36 42
10 11 12 14 14 15 16 16 17 17 17 15 14 12 10 6 3 4 7 9 12 15 17 19 20 19 19 21 23 25 25 26 27 27 25 23 22 22 23 27 31 35 40
11 12 12 14 14 16 17 18 19 19 18 16 13 11 6 4 5 8 11 14 17 19 20 23 24 27 25 27 28 27 30 31 30 27 24 22 21 22 25 29 31 35 42
15 16 17 18 19 19 19 19 19 19 18 16 14 11 9 9 10 12 16 20 23 25 27 29 30 30 28 29 30 31 31 30 28 25 25 24 23 26 29 32 34 39 44
20 20 19 17 18 19 20 21 22 22 21 19 17 16 15 17 17 19 21 24 27 31 32 33 34 35 33 32 31 31 30 29 26 26 25 27 27 30 33 39 43 48 54
24 23 23 23 22 21 22 24 26 27 27 25 23 23 23 23 25 28 30 32 34 36 38 39 37 38 36 34 33 30 30 28 27 28 28 29 31 35 39 44 49 54 61
32 29 26 25 25 24 27 31 34 35 33 31 30 29 31 32 32 34 36 39 40 42 45 43 40 41 40 37 35 32 30 29 29 30 30 33 36 40 45 47 53 59 66
38 37 38 40 39 37 37 36 34 34 35 35 35 36 37 39 40 40 42 44 46 48 48 47 48 46 42 38 36 35 33 32 32 32 34 37 42 46 51 54 57 63 68
43 46 47 43 43 42 39 35 33 36 37 37 38 42 43 44 45 46 48 50 50 49 48 50 51 47 47 42 38 37 37 37 37 37 39 43 47 52 56 59 61 66 70
44 44 43 45 44 41 38 36 37 38 40 40 42 44 45 48 51 52 52 54 53 51 49 51 49 47 45 41 40 41 42 42 42 43 45 48 50 55 60 61 65 68 71
41 42 43 44 43 41 39 39 40 41 43 45 48 47 49 53 55 54 53 54 55 55 54 54 52 51 48 44 43 45 47 47 46 47 49 52 54 58 62 64 67 70 71
43 44 45 46 47 43 44 45 46 48 50 51 52 51 55 58 56 56 55 55 55 53 51 50 50 51 51 50 49 48 50 51 51 52 55 56 59 63 63 66 67 67 70
46 48 49 49 49 51 50 50 51 53 55 57 56 56 56 61 61 57 56 53 50 50 48 50 51 51 50 49 49 50 53 55 54 55 58 59 62 64 65 65 65 65 67
46 48 50 51 52 52 54 54 56 57 59 60 59 59 57 58 58 56 53 49 48 47 47 49 51 50 48 49 50 52 55 56 55 57 60 62 64 64 64 64 64 64 65
46 47 49 50 52 54 55 56 57 58 59 59 58 57 56 54 52 51 49 47 47 47 47 48 48 49 49 50 52 54 57 57 58 59 61 62 64 62 62 62 61 60 59
45 46 47 48 50 51 52 54 55 55 55 55 54 53 51 50 50 47 44 44 45 46 45 46 48 50 52 53 55 55 56 57 59 59 60 61 61 60 60 59 58 55 51
37 39 41 43 46 48 49 49 50 50 50 49 48 47 46 46 46 44 43 43 44 45 46 48 51 53 54 55 54 55 56 57 59 60 61 60 59 57 55 53 52 49 48
Wind_Direction_500mb
185 196 227 233 227 226 229 232 236 244 249 246 234 230 241 257 269 259 250 250 240 233 223 233 254 237 245 276 303 287 281 284 284 277 277 286 299 309 311 315 318 322 326
208 216 239 252 254 242 237 236 233 239 242 238 235 247 262 271 263 227 219 207 219 229 231 196 200 326 2 107 326 307 317 311 308 300 294 301 308 310 316 321 320 323 325
264 243 223 225 224 228 235 224 205 223 228 234 226 229 229 225 200 194 200 178 173 167 172 156 150 138 129 80 353 337 331 336 334 324 313 306 315 320 320 320 320 321 324
211 213 217 199 185 177 179 190 203 204 215 222 224 225 212 190 168 165 150 147 147 135 138 141 137 121 90 33 352 341 335 335 333 327 323 323 323 318 318 318 318 322 324
174 179 167 144 134 128 131 127 139 138 146 142 144 144 146 144 139 137 133 125 131 128 131 122 123 98 3 344 349 351 346 338 337 330 329 328 326 323 323 326 326 327 327
149 146 139 136 140 136 136 135 136 137 138 135 136 138 140 145 131 129 127 132 131 134 127 110 34 9 0 352 351 351 340 332 336 337 334 330 329 326 324 325 329 334 341
141 140 133 130 131 132 138 145 147 162 153 147 147 139 144 143 140 142 133 131 126 116 91 36 3 357 352 349 344 344 343 338 331 330 327 327 320 322 325 328 331 334 335
143 149 144 139 142 141 140 141 145 147 144 143 143 142 148 144 140 137 134 129 102 25 3 5 359 348 341 336 336 338 333 329 327 323 321 323 325 323 324 329 331 335 335
157 154 148 144 144 144 147 150 150 150 150 153 152 150 149 147 148 145 108 35 357 348 347 349 343 333 333 328 327 326 324 320 319 319 321 319 319 320 326 328 332 332 333
174 169 166 162 157 159 163 164 166 164 165 162 159 159 162 162 160 87 13 346 339 336 334 332 326 324 322 311 313 322 323 319 316 316 318 318 321 325 324 325 330 333 336
198 195 190 192 187 188 186 185 179 179 176 176 176 179 183 178 211 311 327 326 323 322 320 315 315 314 314 309 312 313 314 316 315 315 315 315 315 313 316 323 329 331 331
218 213 214 225 226 223 215 208 199 195 195 205 213 218 220 245 283 305 311 311 313 312 312 314 317 315 308 304 306 312 314 312 308 305 304 306 308 311 318 320 324 327 327
240 234 236 234 230 231 230 228 228 225 230 235 241 249 260 275 284 293 300 308 312 313 313 311 308 306 302 303 307 306 303 299 298 300 304 307 311 311 315 317 323 322 323
252 255 253 246 240 238 241 243 240 248 251 251 257 263 269 277 283 290 296 302 305 304 304 302 302 300 297 297 296 295 297 298 299 299 302 303 307 311 316 316 321 321 319
250 244 246 244 246 252 257 258 256 255 255 255 258 268 276 281 287 293 297 299 300 299 299 296 293 294 295 294 290 291 294 297 299 297 300 302 307 310 314 316 318 319 320
256 255 247 246 256 268 274 268 262 259 256 257 262 270 277 283 287 291 295 297 298 298 296 295 295 295 295 293 289 292 294 294 293 296 301 304 307 309 310 312 316 318 318
250 256 262 266 268 273 274 269 261 256 257 261 267 273 279 284 286 288 290 291 292 291 291 295 297 295 291 287 284 288 292 292 294 298 300 303 305 307 309 311 314 315 316
245 243 251 259 260 265 268 262 257 254 258 263 268 273 279 284 288 289 289 289 290 291 293 294 294 293 290 286 284 285 287 289 292 294 297 300 302 306 307 310 312 314 316
246 248 252 256 260 262 260 258 259 261 266 271 274 279 285 286 287 289 291 291 292 292 292 289 288 288 287 287 285 284 285 286 289 293 296 300 303 304 304 309 311 313 314
252 251 251 253 255 255 258 260 264 268 272 277 281 286 284 284 285 288 287 288 289 291 291 290 291 289 288 287 283 281 282 285 288 291 295 297 300 300 303 308 309 312 313
252 253 255 253 255 257 259 262 265 268 273 278 284 285 285 284 286 288 289 287 287 288 287 285 283 282 283 284 283 281 282 285 288 291 293 296 297 300 304 305 307 310 311
249 251 253 256 259 260 262 266 269 273 277 281 285 287 288 289 292 291 289 289 290 289 288 285 283 283 283 283 282 281 283 285 289 292 292 293 295 298 300 303 306 308 310
256 257 258 258 261 264 266 270 274 278 282 285 288 288 288 288 290 291 291 290 287 284 282 280 281 283 284 284 282 282 283 287 290 290 292 293 294 297 300 303 306 307 308
258 259 261 262 263 266 271 275 279 280 282 284 286 288 289 289 288 287 287 288 286 285 284 284 283 283 283 283 283 282 283 285 286 287 289 291 294 297 298 300 301 301 302
265 266 267 269 270 272 274 276 279 281 283 286 288 289 291 290 288 288 287 285 283 281 281 281 282 283 284 285 285 286 286 286 287 287 288 290 292 294 295 296 298 298 300
278 278 279 278 279 280 281 281 283 284 286 288 289 288 287 286 286 286 285 283 282 282 282 282 283 284 285 286 286 286 285 285 285 286 288 289 290 291 292 293 293 293 297
Wind_Speed_850mb
12 13 16 19 24 23 24 27 26 25 24 24 22 24 22 21 24 23 21 19 16 12 11 10 11 7 5 5 4 8 9 9 7 7 9 12 14 17 20 24 28 31 31
6 10 14 19 23 22 25 28 23 22 21 17 15 14 18 17 19 14 11 10 7 8 7 5 3 1 1 1 1 3 5 8 8 7 8 11 14 17 21 25 28 31 32
17 16 15 16 14 14 13 11 10 14 16 18 17 16 13 11 12 11 11 11 9 7 5 4 4 5 3 1 3 6 8 9 10 10 11 12 15 20 23 26 28 30 31
18 15 12 9 7 8 9 10 9 10 11 14 14 15 13 16 14 15 14 11 8 7 8 7 7 5 3 3 5 8 11 13 14 14 14 15 16 19 22 25 25 30 31
10 10 8 8 8 9 8 6 8 12 14 16 16 17 18 17 17 15 14 14 12 11 9 7 5 2 3 7 10 12 15 17 16 16 16 16 18 20 24 29 31 32 35
13 12 12 13 14 14 9 10 10 11 12 12 11 13 15 16 18 16 14 12 11 10 8 4 4 6 9 11 14 16 15 15 15 16 17 18 22 24 26 30 34 38 36
12 11 12 12 12 14 13 12 12 11 12 13 15 17 18 17 15 12 11 9 8 6 4 3 7 10 12 13 15 15 16 19 19 18 19 21 23 25 27 28 31 34 36
13 12 12 13 13 13 13 14 16 17 17 18 19 18 15 14 13 10 8 5 2 3 6 8 10 12 13 15 15 16 18 18 19 21 22 22 23 25 27 29 30 32 37
13 13 13 14 13 14 14 15 15 16 17 17 17 17 16 13 10 6 3 2 5 7 8 10 12 14 16 17 19 19 19 20 21 23 22 23 22 23 25 27 30 36 41
11 12 13 14 16 15 15 15 14 15 16 17 18 16 13 10 5 1 3 5 8 11 13 15 15 17 18 18 20 22 22 22 23 23 22 22 22 24 25 27 31 36 42
10 11 12 14 14 15 16 16 17 17 17 15 14 12 10 6 3 4 7 9 12 15 17 19 20 19 19 21 23 25 25 26 27 27 25 23 22 22 23 27 31 35 40
11 12 12 14 14 16 17 18 19 19 18 16 13 11 6 4 5 8 11 14 17 19 20 23 24 27 25 27 28 27 30 31 30 27 24 22 21 22 25 29 31 35 42
15 16 17 18 19 19 19 19 19 19 18 16 14 11 9 9 10 12 16 20 23 25 27 29 30 30 28 29 30 31 31 30 28 25 25 24 23 26 29 32 34 39 44
20 20 19 17 18 19 20 21 22 22 21 19 17 16 15 17 17 19 21 24 27 31 32 33 34 35 33 32 31 31 30 29 26 26 25 27 27 30 33 39 43 48 54
24 23 23 23 22 21 22 24 26 27 27 25 23 23 23 23 25 28 30 32 34 36 38 39 37 38 36 34 33 30 30 28 27 28 28 29 31 35 39 44 49 54 61
32 29 26 25 25 24 27 31 34 35 33 31 30 29 31 32 32 34 36 39 40 42 45 43 40 41 40 37 35 32 30 29 29 30 30 33 36 40 45 47 53 59 66
38 37 38 40 39 37 37 36 34 34 35 35 35 36 37 39 40 40 42 44 46 48 48 47 48 46 42 38 36 35 33 32 32 32 34 37 42 46 51 54 57 63 68
43 46 47 43 43 42 39 35 33 36 37 37 38 42 43 44 45 46 48 50 50 49 48 50 51 47 47 42 38 37 37 37 37 37 39 43 47 52 56 59 61 66 70
44 44 43 45 44 41 38 36 37 38 40 40 42 44 45 48 51 52 52 54 53 51 49 51 49 47 45 41 40 41 42 42 42 43 45 48 50 55 60 61 65 68 71
41 42 43 44 43 41 39 39 40 41 43 45 48 47 49 53 55 54 53 54 55 55 54 54 52 51 48 44 43 45 47 47 46 47 49 52 54 58 62 64 67 70 71
43 44 45 46 47 43 44 45 46 48 50 51 52 51 55 58 56 56 55 55 55 53 51 50 50 51 51 50 49 48 50 51 51 52 55 56 59 63 63 66 67 67 70
46 48 49 49 49 51 50 50 51 53 55 57 56 56 56 61 61 57 56 53 50 50 48 50 51 51 50 49 49 50 53 55 54 55 58 59 62 64 65 65 65 65 67
46 48 50 51 52 52 54 54 56 57 59 60 59 59 57 58 58 56 53 49 48 47 47 49 51 50 48 49 50 52 55 56 55 57 60 62 64 64 64 64 64 64 65
46 47 49 50 52 54 55 56 57 58 59 59 58 57 56 54 52 51 49 47 47 47 47 48 48 49 49 50 52 54 57 57 58 59 61 62 64 62 62 62 61 60 59
45 46 47 48 50 51 52 54 55 55 55 55 54 53 51 50 50 47 44 44 45 46 45 46 48 50 52 53 55 55 56 57 59 59 60 61 61 60 60 59 58 55 51
37 39 41 43 46 48 49 49 50 50 50 49 48 47 46 46 46 44 43 43 44 45 46 48 51 53 54 55 54 55 56 57 59 60 61 60 59 57 55 53 52 49 48
Wind_Direction_850mb
185 196 227 233 227 226 229 232 236 244 249 246 234 230 241 257 269 259 250 250 240 233 223 233 254 237 245 276 303 287 281 284 284 277 277 286 299 309 311 315 318 322 326
208 216 239 252 254 242 237 236 233 239 242 238 235 247 262 271 263 227 219 207 219 229 231 196 200 326 2 107 326 307 317 311 308 300 294 301 308 310 316 321 320 323 325
264 243 223 225 224 228 235 224 205 223 228 234 226 229 229 225 200 194 200 178 173 167 172 156 150 138 129 80 353 337 331 336 334 324 313 306 315 320 320 320 320 321 324
211 213 217 199 185 177 179 190 203 204 215 222 224 225 212 190 168 165 150 147 147 135 138 141 137 121 90 33 352 341 335 335 333 327 323 323 323 318 318 318 318 322 324
174 179 167 144 134 128 131 127 139 138 146 142 144 144 146 144 139 137 133 125 131 128 131 122 123 98 3 344 349 351 346 338 337 330 329 328 326 323 323 326 326 327 327
149 146 139 136 140 136 136 135 136 137 138 135 136 138 140 145 131 129 127 132 131 134 127 110 34 9 0 352 351 351 340 332 336 337 334 330 329 326 324 325 329 334 341
141 140 133 130 131 132 138 145 147 162 153 147 147 139 144 143 140 142 133 131 126 116 91 36 3 357 352 349 344 344 343 338 331 330 327 327 320 322 325 328 331 334 335
143 149 144 139 142 141 140 141 145 147 144 143 143 142 148 144 140 137 134 129 102 25 3 5 359 348 341 336 336 338 333 329 327 323 321 323 325 323 324 329 331 335 335
157 154 148 144 144 144 147 150 150 150 150 153 152 150 149 147 148 145 108 35 357 348 347 349 343 333 333 328 327 326 324 320 319 319 321 319 319 320 326 328 332 332 333
174 169 166 162 157 159 163 164 166 164 165 162 159 159 162 162 160 87 13 346 339 336 334 332 326 324 322 311 313 322 323 319 316 316 318 318 321 325 324 325 330 333 336
198 195 190 192 187 188 186 185 179 179 176 176 176 179 183 178 211 311 327 326 323 322 320 315 315 314 314 309 312 313 314 316 315 315 315 315 315 313 316 323 329 331 331
218 213 214 225 226 223 215 208 199 195 195 205 213 218 220 245 283 305 311 311 313 312 312 314 317 315 308 304 306 312 314 312 308 305 304 306 308 311 318 320 324 327 327
240 234 236 234 230 231 230 228 228 225 230 235 241 249 260 275 284 293 300 308 312 313 313 311 308 306 302 303 307 306 303 299 298 300 304 307 311 311 315 317 323 322 323
252 255 253 246 240 238 241 243 240 248 251 251 257 263 269 277 283 290 296 302 305 304 304 302 302 300 297 297 296 295 297 298 299 299 302 303 307 311 316 316 321 321 319
250 244 246 244 246 252 257 258 256 255 255 255 258 268 276 281 287 293 297 299 300 299 299 296 293 294 295 294 290 291 294 297 299 297 300 302 307 310 314 316 318 319 320
256 255 247 246 256 268 274 268 262 259 256 257 262 270 277 283 287 291 295 297 298 298 296 295 295 295 295 293 289 292 294 294 293 296 301 304 307 309 310 312 316 318 318
250 256 262 266 268 273 274 269 261 256 257 261 267 273 279 284 286 288 290 291 292 291 291 295 297 295 291 287 284 288 292 292 294 298 300 303 305 307 309 311 314 315 316
245 243 251 259 260 265 268 262 257 254 258 263 268 273 279 284 288 289 289 289 290 291 293 294 294 293 290 286 284 285 287 289 292 294 297 300 302 306 307 310 312 314 316
246 248 252 256 260 262 260 258 259 261 266 271 274 279 285 286 287 289 291 291 292 292 292 289 288 288 287 287 285 284 285 286 289 293 296 300 303 304 304 309 311 313 314
252 251 251 253 255 255 258 260 264 268 272 277 281 286 284 284 285 288 287 288 289 291 291 290 291 289 288 287 283 281 282 285 288 291 295 297 300 300 303 308 309 312 313
252 253 255 253 255 257 259 262 265 268 273 278 284 285 285 284 286 288 289 287 287 288 287 285 283 282 283 284 283 281 282 285 288 291 293 296 297 300 304 305 307 310 311
249 251 253 256 259 260 262 266 269 273 277 281 285 287 288 289 292 291 289 289 290 289 288 285 283 283 283 283 282 281 283 285 289 292 292 293 295 298 300 303 306 308 310
256 257 258 258 261 264 266 270 274 278 282 285 288 288 288 288 290 291 291 290 287 284 282 280 281 283 284 284 282 282 283 287 290 290 292 293 294 297 300 303 306 307 308
258 259 261 262 263 266 271 275 279 280 282 284 286 288 289 289 288 287 287 288 286 285 284 284 283 283 283 283 283 282 283 285 286 287 289 291 294 297 298 300 301 301 302
265 266 267 269 270 272 274 276 279 281 283 286 288 289 291 290 288 288 287 285 283 281 281 281 282 283 284 285 285 286 286 286 287 287 288 290 292 294 295 296 298 298 300
278 278 279 278 279 280 281 281 283 284 286 288 289 288 287 286 286 286 285 283 282 282 282 282 283 284 285 286 286 286 285 285 285 286 288 289 290 291 292 293 293 293 297